STARLINK-32438, 61722

Orbit data source: Space-Track

STARLINK-32438, 61722 is a payload satellite owned by SpaceX/Seattle (US) in LEO that was launched on Wed, 30 Oct 2024 UTC via an FALCON 9 launch vehicle from the Air Force Eastern Test Range (AFETR). Payload-class satellites include a variety of spacecraft equipped with specific instruments for various scientific and technological missions. These include communications satellites like Starlink; space stations such as the ISS; scientific satellites like the Hubble; Earth observation satellites from companies like Planet Labs, Umbra, and HawkEye 360; GPS; miniature CubeSats for education and research; and military/defense satellites.

Loading next visibility...
Identifier
61722, 2024-196R
Orbit
LEO
Country
Flag of USUS
Related business
Manufacturer
SpaceX/Seattle
Mission
Operational Commercial Communications
Bus & Motor
STARLINK V2M, Unknown motor
Mass
730 kg wet, ~700 kg dry
Launch date (UTC)
2024-10-30 (1 year ago)
Launch vehicle
FALCON 9
Launch site
Air Force Eastern Test Range (AFETR)
Object type
Payload
Rocket body
Debris
Shape & HBR
Box + 2 Pan, 17.7 m
Radar Cross Section
33.884 m², Large (>1 m²)

Expand to show TLE details & history
Last TLE update: 1 day ago

TLE from 1 day ago
0 STARLINK-32438
1 61722U 24196R   25352.57199080 -.00000730  00000-0 -12560-4 0  9996
2 61722  53.1593 118.3705 0000707 103.5858 256.5221 15.30184456 64735
Epoch: 2025-12-18T13:43Z
TLE epoch observation values (Epoch: 2025-12-18T13:43:40.005Z)
Latitude
-0.00005°
Longitude
-174.9718°
Altitude
476.274 km
Speed
7.629 km/s
True Right ascension
07h 53m 28s
True Declination
0° 00' 00"
Sunlit
Object was in full shadow at epoch
Visualization orbit readout
Latitude
Unknown
Longitude
Unknown
Altitude
Unknown
Speed
Unknown
Apparent Right ascension
Unknown
Apparent Declination
Unknown
Sunlit
N/A
Visualization observer readout
Local Sidereal Time
17:39:21
Azimuth
Unknown
Elevation
Unknown
Doppler factor
Unknown
Orbital elements
Apogee altitude
476.003 km
Perigee altitude
475.033 km
Semi-major axis
6,853.655 km
Eccentricity
0.00007
Inclination
53.1593°
RAAN
118.3705°
Arg. of periapsis
103.5858°
True anomaly
256.51422°
Mean anomaly
256.5221°
Eccentric anomaly
256.51816°
Mean motion
3.82525 °/min
Orbital period
94.11 mins
BSTAR
-0.00001256
Loading maneuver chart data...
Computing Atmospheric mass density...
Loading historical data...
Loading historical data...
Loading historical data...
Loading historical data...
Loading historical data...
Loading historical data...
Loading historical data...

Documentation

Showing up to 5 results
|